Year,Month,Day,Hour,Minute,Value (Times are PST for temperature in C)
2006,09,05,00,00,15.30
2006,09,05,00,01,15.20
2006,09,05,00,02,15.20
2006,09,05,00,03,15.20
2006,09,05,00,04,15.20
2006,09,05,00,05,15.10
2006,09,05,00,06,15.10
2006,09,05,00,07,15.10
2006,09,05,00,08,15.10
2006,09,05,00,09,15.00
2006,09,05,00,10,15.00
2006,09,05,00,11,15.00
2006,09,05,00,12,15.00
2006,09,05,00,13,14.90
2006,09,05,00,14,14.90
2006,09,05,00,15,14.90
2006,09,05,00,16,14.90
2006,09,05,00,17,14.90
2006,09,05,00,18,14.90
2006,09,05,00,19,14.80
2006,09,05,00,20,14.80
2006,09,05,00,21,14.80
2006,09,05,00,22,14.80
2006,09,05,00,23,14.80
2006,09,05,00,24,14.80
2006,09,05,00,25,14.80
2006,09,05,00,26,14.80
2006,09,05,00,27,14.80
2006,09,05,00,28,14.70
2006,09,05,00,29,14.70
2006,09,05,00,30,14.70
2006,09,05,00,31,14.70
2006,09,05,00,32,14.70
2006,09,05,00,33,14.60
2006,09,05,00,34,14.60
2006,09,05,00,35,14.60
2006,09,05,00,36,14.60
2006,09,05,00,37,14.60
2006,09,05,00,38,14.50
2006,09,05,00,39,14.50
2006,09,05,00,40,14.50
2006,09,05,00,41,14.50
2006,09,05,00,42,14.40
2006,09,05,00,43,14.40
2006,09,05,00,44,14.40
2006,09,05,00,45,14.40
2006,09,05,00,46,14.30
2006,09,05,00,47,14.30
2006,09,05,00,48,14.30
2006,09,05,00,49,14.30
2006,09,05,00,50,14.20
2006,09,05,00,51,14.20
2006,09,05,00,52,14.20
2006,09,05,00,53,14.20
2006,09,05,00,54,14.20
2006,09,05,00,55,14.20
2006,09,05,00,56,14.20
2006,09,05,00,57,14.20
2006,09,05,00,58,14.10
2006,09,05,00,59,14.10
2006,09,05,01,00,14.10
2006,09,05,01,01,14.10
2006,09,05,01,02,14.10
2006,09,05,01,03,14.10
2006,09,05,01,04,14.10
2006,09,05,01,05,14.10
2006,09,05,01,06,14.10
2006,09,05,01,07,14.10
2006,09,05,01,08,14.10
2006,09,05,01,09,14.10
2006,09,05,01,10,14.10
2006,09,05,01,11,14.10
2006,09,05,01,12,14.10
2006,09,05,01,13,14.10
2006,09,05,01,14,14.10
2006,09,05,01,15,14.10
2006,09,05,01,16,14.10
2006,09,05,01,17,14.10
2006,09,05,01,18,14.10
2006,09,05,01,19,14.00
2006,09,05,01,20,14.00
2006,09,05,01,21,14.00
2006,09,05,01,22,14.00
2006,09,05,01,23,13.90
2006,09,05,01,24,13.90
2006,09,05,01,25,13.90
2006,09,05,01,26,13.90
2006,09,05,01,27,13.80
2006,09,05,01,28,13.80
2006,09,05,01,29,13.80
2006,09,05,01,30,13.80
2006,09,05,01,31,13.80
2006,09,05,01,32,13.70
2006,09,05,01,33,13.70
2006,09,05,01,34,13.70
2006,09,05,01,35,13.70
2006,09,05,01,36,13.80
2006,09,05,01,37,13.80
2006,09,05,01,38,13.80
2006,09,05,01,39,13.90
2006,09,05,01,40,13.90
2006,09,05,01,41,13.90
2006,09,05,01,42,14.00
2006,09,05,01,43,14.00
2006,09,05,01,44,14.10
2006,09,05,01,45,14.10
2006,09,05,01,46,14.10
2006,09,05,01,47,14.10
2006,09,05,01,48,14.20
2006,09,05,01,49,14.20
2006,09,05,01,50,14.20
2006,09,05,01,51,14.20
2006,09,05,01,52,14.20
2006,09,05,01,53,14.20
2006,09,05,01,54,14.20
2006,09,05,01,55,14.20
2006,09,05,01,56,14.20
2006,09,05,01,57,14.20
2006,09,05,01,58,14.20
2006,09,05,01,59,14.20
2006,09,05,02,00,14.20
2006,09,05,02,01,14.20
2006,09,05,02,02,14.20
2006,09,05,02,03,14.30
2006,09,05,02,04,14.30
2006,09,05,02,05,14.30
2006,09,05,02,06,14.30
2006,09,05,02,07,14.30
2006,09,05,02,08,14.30
2006,09,05,02,09,14.30
2006,09,05,02,10,14.30
2006,09,05,02,11,14.30
2006,09,05,02,12,14.30
2006,09,05,02,13,14.30
2006,09,05,02,14,14.30
2006,09,05,02,15,14.30
2006,09,05,02,16,14.30
2006,09,05,02,17,14.20
2006,09,05,02,18,14.20
2006,09,05,02,19,14.20
2006,09,05,02,20,14.20
2006,09,05,02,21,14.20
2006,09,05,02,22,14.20
2006,09,05,02,23,14.20
2006,09,05,02,24,14.20
2006,09,05,02,25,14.20
2006,09,05,02,26,14.20
2006,09,05,02,27,14.20
2006,09,05,02,28,14.20
2006,09,05,02,29,14.20
2006,09,05,02,30,14.20
2006,09,05,02,31,14.20
2006,09,05,02,32,14.20
2006,09,05,02,33,14.20
2006,09,05,02,34,14.20
2006,09,05,02,35,14.20
2006,09,05,02,36,14.20
2006,09,05,02,37,14.20
2006,09,05,02,38,14.20
2006,09,05,02,39,14.20
2006,09,05,02,40,14.10
2006,09,05,02,41,14.10
2006,09,05,02,42,14.10
2006,09,05,02,43,14.10
2006,09,05,02,44,14.10
2006,09,05,02,45,14.00
2006,09,05,02,46,14.00
2006,09,05,02,47,14.00
2006,09,05,02,48,14.00
2006,09,05,02,49,14.00
2006,09,05,02,50,14.00
2006,09,05,02,51,14.10
2006,09,05,02,52,14.10
2006,09,05,02,53,14.10
2006,09,05,02,54,14.20
2006,09,05,02,55,14.20
2006,09,05,02,56,14.20
2006,09,05,02,57,14.20
2006,09,05,02,58,14.30
2006,09,05,02,59,14.30
2006,09,05,03,00,14.40
2006,09,05,03,01,14.50
2006,09,05,03,02,14.60
2006,09,05,03,03,14.70
2006,09,05,03,04,14.80
2006,09,05,03,05,14.90
2006,09,05,03,06,15.00
2006,09,05,03,07,15.00
2006,09,05,03,08,15.10
2006,09,05,03,09,15.20
2006,09,05,03,10,15.20
2006,09,05,03,11,15.30
2006,09,05,03,12,15.30
2006,09,05,03,13,15.40
2006,09,05,03,14,15.50
2006,09,05,03,15,15.60
2006,09,05,03,16,15.60
2006,09,05,03,17,15.70
2006,09,05,03,18,15.80
2006,09,05,03,19,15.80
2006,09,05,03,20,15.90
2006,09,05,03,21,15.90
2006,09,05,03,22,16.00
2006,09,05,03,23,16.10
2006,09,05,03,24,16.10
2006,09,05,03,25,16.10
2006,09,05,03,26,16.10
2006,09,05,03,27,16.10
2006,09,05,03,28,16.20
2006,09,05,03,29,16.20
2006,09,05,03,30,16.20
2006,09,05,03,31,16.20
2006,09,05,03,32,16.20
2006,09,05,03,33,16.20
2006,09,05,03,34,16.20
2006,09,05,03,35,16.20
2006,09,05,03,36,16.20
2006,09,05,03,37,16.10
2006,09,05,03,38,16.10
2006,09,05,03,39,16.10
2006,09,05,03,40,16.10
2006,09,05,03,41,16.10
2006,09,05,03,42,16.00
2006,09,05,03,43,15.90
2006,09,05,03,44,16.10
2006,09,05,03,45,16.00
2006,09,05,03,46,15.90
2006,09,05,03,47,15.90
2006,09,05,03,48,15.90
2006,09,05,03,49,15.90
2006,09,05,03,50,15.80
2006,09,05,03,51,15.80
2006,09,05,03,52,15.70
2006,09,05,03,53,15.60
2006,09,05,03,54,15.50
2006,09,05,03,55,15.50
2006,09,05,03,56,15.40
2006,09,05,03,57,15.30
2006,09,05,03,58,15.30
2006,09,05,03,59,15.20
2006,09,05,04,00,15.10
2006,09,05,04,01,15.10
2006,09,05,04,02,15.00
2006,09,05,04,03,15.00
2006,09,05,04,04,14.90
2006,09,05,04,05,14.90
2006,09,05,04,06,14.80
2006,09,05,04,07,14.80
2006,09,05,04,08,14.80
2006,09,05,04,09,14.70
2006,09,05,04,10,14.70
2006,09,05,04,11,14.60
2006,09,05,04,12,14.60
2006,09,05,04,13,14.50
2006,09,05,04,14,14.50
2006,09,05,04,15,14.50
2006,09,05,04,16,14.40
2006,09,05,04,17,14.40
2006,09,05,04,18,14.40
2006,09,05,04,19,14.30
2006,09,05,04,20,14.30
2006,09,05,04,21,14.30
2006,09,05,04,22,14.30
2006,09,05,04,23,14.20
2006,09,05,04,24,14.20
2006,09,05,04,25,14.20
2006,09,05,04,26,14.20
2006,09,05,04,27,14.20
2006,09,05,04,28,14.20
2006,09,05,04,29,14.10
2006,09,05,04,30,14.10
2006,09,05,04,31,14.10
2006,09,05,04,32,14.10
2006,09,05,04,33,14.10
2006,09,05,04,34,14.00
2006,09,05,04,35,14.00
2006,09,05,04,36,14.00
2006,09,05,04,37,14.00
2006,09,05,04,38,14.00
2006,09,05,04,39,13.90
2006,09,05,04,40,13.90
2006,09,05,04,41,13.90
2006,09,05,04,42,13.90
2006,09,05,04,43,13.90
2006,09,05,04,44,13.90
2006,09,05,04,45,13.90
2006,09,05,04,46,13.90
2006,09,05,04,47,13.90
2006,09,05,04,48,13.90
2006,09,05,04,49,13.80
2006,09,05,04,50,13.80
2006,09,05,04,51,13.80
2006,09,05,04,52,13.80
2006,09,05,04,53,13.80
2006,09,05,04,54,13.80
2006,09,05,04,55,13.80
2006,09,05,04,56,13.70
2006,09,05,04,57,13.70
2006,09,05,04,58,13.70
2006,09,05,04,59,13.70
2006,09,05,05,00,13.70
2006,09,05,05,01,13.70
2006,09,05,05,02,13.70
2006,09,05,05,03,13.70
2006,09,05,05,04,13.60
2006,09,05,05,05,13.60
2006,09,05,05,06,13.60
2006,09,05,05,07,13.60
2006,09,05,05,08,13.60
2006,09,05,05,09,13.60
2006,09,05,05,10,13.50
2006,09,05,05,11,13.60
2006,09,05,05,12,13.50
2006,09,05,05,13,13.50
2006,09,05,05,14,13.60
2006,09,05,05,15,13.60
2006,09,05,05,16,13.70
2006,09,05,05,17,13.70
2006,09,05,05,18,13.70
2006,09,05,05,19,13.70
2006,09,05,05,20,13.80
2006,09,05,05,21,13.80
2006,09,05,05,22,13.80
2006,09,05,05,23,13.80
2006,09,05,05,24,13.80
2006,09,05,05,25,13.80
2006,09,05,05,26,13.80
2006,09,05,05,27,13.80
2006,09,05,05,28,13.80
2006,09,05,05,29,13.70
2006,09,05,05,30,13.70
2006,09,05,05,31,13.70
2006,09,05,05,32,13.70
2006,09,05,05,33,13.70
2006,09,05,05,34,13.70
2006,09,05,05,35,13.70
2006,09,05,05,36,13.70
2006,09,05,05,37,13.60
2006,09,05,05,38,13.60
2006,09,05,05,39,13.60
2006,09,05,05,40,13.60
2006,09,05,05,41,13.60
2006,09,05,05,42,13.60
2006,09,05,05,43,13.60
2006,09,05,05,44,13.60
2006,09,05,05,45,13.60
2006,09,05,05,46,13.60
2006,09,05,05,47,13.60
2006,09,05,05,48,13.60
2006,09,05,05,49,13.60
2006,09,05,05,50,13.60
2006,09,05,05,51,13.60
2006,09,05,05,52,13.50
2006,09,05,05,53,13.60
2006,09,05,05,54,13.60
2006,09,05,05,55,13.60
2006,09,05,05,56,13.60
2006,09,05,05,57,13.60
2006,09,05,05,58,13.60
2006,09,05,05,59,13.60
2006,09,05,06,00,13.60
2006,09,05,06,01,13.60
2006,09,05,06,02,13.60
2006,09,05,06,03,13.60
2006,09,05,06,04,13.60
2006,09,05,06,05,13.60
2006,09,05,06,06,13.50
2006,09,05,06,07,13.50
2006,09,05,06,08,13.50
2006,09,05,06,09,13.50
2006,09,05,06,10,13.50
2006,09,05,06,11,13.50
2006,09,05,06,12,13.50
2006,09,05,06,13,13.50
2006,09,05,06,14,13.40
2006,09,05,06,15,13.40
2006,09,05,06,16,13.40
2006,09,05,06,17,13.40
2006,09,05,06,18,13.30
2006,09,05,06,19,13.30
2006,09,05,06,20,13.30
2006,09,05,06,21,13.30
2006,09,05,06,22,13.30
2006,09,05,06,23,13.30
2006,09,05,06,24,13.30
2006,09,05,06,25,13.30
2006,09,05,06,26,13.30
2006,09,05,06,27,13.30
2006,09,05,06,28,13.30
2006,09,05,06,29,13.30
2006,09,05,06,30,13.30
2006,09,05,06,31,13.30
2006,09,05,06,32,13.30
2006,09,05,06,33,13.30
2006,09,05,06,34,13.30
2006,09,05,06,35,13.30
2006,09,05,06,36,13.30
2006,09,05,06,37,13.30
2006,09,05,06,38,13.30
2006,09,05,06,39,13.30
2006,09,05,06,40,13.30
2006,09,05,06,41,13.30
2006,09,05,06,42,13.30
2006,09,05,06,43,13.30
2006,09,05,06,44,13.30
2006,09,05,06,45,13.30
2006,09,05,06,46,13.30
2006,09,05,06,47,13.30
2006,09,05,06,48,13.20
2006,09,05,06,49,13.20
2006,09,05,06,50,13.20
2006,09,05,06,51,13.20
2006,09,05,06,52,13.20
2006,09,05,06,53,13.20
2006,09,05,06,54,13.20
2006,09,05,06,55,13.10
2006,09,05,06,56,13.10
2006,09,05,06,57,13.10
2006,09,05,06,58,13.10
2006,09,05,06,59,13.10
2006,09,05,07,00,13.10
2006,09,05,07,01,13.10
2006,09,05,07,02,13.10
2006,09,05,07,03,13.10
2006,09,05,07,04,13.10
2006,09,05,07,05,13.10
2006,09,05,07,06,13.10
2006,09,05,07,07,13.10
2006,09,05,07,08,13.10
2006,09,05,07,09,13.10
2006,09,05,07,10,13.10
2006,09,05,07,11,13.10
2006,09,05,07,12,13.20
2006,09,05,07,13,13.20
2006,09,05,07,14,13.20
2006,09,05,07,15,13.20
2006,09,05,07,16,13.20
2006,09,05,07,17,13.20
2006,09,05,07,18,13.30
2006,09,05,07,19,13.30
2006,09,05,07,20,13.30
2006,09,05,07,21,13.30
2006,09,05,07,22,13.30
2006,09,05,07,23,13.30
2006,09,05,07,24,13.30
2006,09,05,07,25,13.30
2006,09,05,07,26,13.30
2006,09,05,07,27,13.30
2006,09,05,07,28,13.30
2006,09,05,07,29,13.40
2006,09,05,07,30,13.40
2006,09,05,07,31,13.40
2006,09,05,07,32,13.40
2006,09,05,07,33,13.40
2006,09,05,07,34,13.40
2006,09,05,07,35,13.50
2006,09,05,07,36,13.50
2006,09,05,07,37,13.50
2006,09,05,07,38,13.60
2006,09,05,07,39,13.60
2006,09,05,07,40,13.60
2006,09,05,07,41,13.60
2006,09,05,07,42,13.60
2006,09,05,07,43,13.60
2006,09,05,07,44,13.70
2006,09,05,07,45,13.70
2006,09,05,07,46,13.70
2006,09,05,07,47,13.70
2006,09,05,07,48,13.70
2006,09,05,07,49,13.70
2006,09,05,07,50,13.80
2006,09,05,07,51,13.90
2006,09,05,07,52,13.90
2006,09,05,07,53,14.00
2006,09,05,07,54,14.10
2006,09,05,07,55,14.20
2006,09,05,07,56,14.30
2006,09,05,07,57,14.50
2006,09,05,07,58,14.60
2006,09,05,07,59,14.70
2006,09,05,08,00,14.80
2006,09,05,08,01,14.90
2006,09,05,08,02,15.00
2006,09,05,08,03,15.10
2006,09,05,08,04,15.20
2006,09,05,08,05,15.30
2006,09,05,08,06,15.40
2006,09,05,08,07,15.60
2006,09,05,08,08,15.90
2006,09,05,08,09,16.10
2006,09,05,08,10,16.30
2006,09,05,08,11,16.40
2006,09,05,08,12,16.60
2006,09,05,08,13,16.70
2006,09,05,08,14,16.80
2006,09,05,08,15,16.90
2006,09,05,08,16,17.00
2006,09,05,08,17,17.10
2006,09,05,08,18,17.30
2006,09,05,08,19,17.40
2006,09,05,08,20,17.50
2006,09,05,08,21,17.60
2006,09,05,08,22,17.70
2006,09,05,08,23,17.80
2006,09,05,08,24,17.80
2006,09,05,08,25,17.90
2006,09,05,08,26,17.90
2006,09,05,08,27,17.90
2006,09,05,08,28,18.00
2006,09,05,08,29,18.10
2006,09,05,08,30,18.10
2006,09,05,08,31,18.10
2006,09,05,08,32,18.10
2006,09,05,08,33,18.20
2006,09,05,08,34,18.20
2006,09,05,08,35,18.20
2006,09,05,08,36,18.20
2006,09,05,08,37,18.20
2006,09,05,08,38,18.20
2006,09,05,08,39,18.20
2006,09,05,08,40,18.30
2006,09,05,08,41,18.30
2006,09,05,08,42,18.30
2006,09,05,08,43,18.30
2006,09,05,08,44,18.30
2006,09,05,08,45,18.40
2006,09,05,08,46,18.40
2006,09,05,08,47,18.40
2006,09,05,08,48,18.40
2006,09,05,08,49,18.40
2006,09,05,08,50,18.50
2006,09,05,08,51,18.50
2006,09,05,08,52,18.50
2006,09,05,08,53,18.50
2006,09,05,08,54,18.50
2006,09,05,08,55,18.50
2006,09,05,08,56,18.50
2006,09,05,08,57,18.60
2006,09,05,08,58,18.60
2006,09,05,08,59,18.60
2006,09,05,09,00,18.60
2006,09,05,09,01,18.70
2006,09,05,09,02,18.70
2006,09,05,09,03,18.70
2006,09,05,09,04,18.70
2006,09,05,09,05,18.70
2006,09,05,09,06,18.80
2006,09,05,09,07,18.80
2006,09,05,09,08,18.80
2006,09,05,09,09,18.80
2006,09,05,09,10,18.80
2006,09,05,09,11,18.80
2006,09,05,09,12,18.80
2006,09,05,09,13,18.80
2006,09,05,09,14,18.80
2006,09,05,09,15,18.90
2006,09,05,09,16,18.90
2006,09,05,09,17,18.90
2006,09,05,09,18,18.90
2006,09,05,09,19,18.90
2006,09,05,09,20,19.00
2006,09,05,09,21,19.10
2006,09,05,09,22,19.10
2006,09,05,09,23,19.10
2006,09,05,09,24,19.10
2006,09,05,09,25,19.10
2006,09,05,09,26,19.10
2006,09,05,09,27,19.10
2006,09,05,09,28,19.10
2006,09,05,09,29,19.10
2006,09,05,09,30,19.20
2006,09,05,09,31,19.20
2006,09,05,09,32,19.20
2006,09,05,09,33,19.20
2006,09,05,09,34,19.20
2006,09,05,09,35,19.20
2006,09,05,09,36,19.30
2006,09,05,09,37,19.30
2006,09,05,09,38,19.40
2006,09,05,09,39,19.40
2006,09,05,09,40,19.40
2006,09,05,09,41,19.40
2006,09,05,09,42,19.40
2006,09,05,09,43,19.40
2006,09,05,09,44,19.40
2006,09,05,09,45,19.50
2006,09,05,09,46,19.60
2006,09,05,09,47,19.60
2006,09,05,09,48,19.60
2006,09,05,09,49,19.60
2006,09,05,09,50,19.60
2006,09,05,09,51,19.60
2006,09,05,09,52,19.60
2006,09,05,09,53,19.60
2006,09,05,09,54,19.60
2006,09,05,09,55,19.60
2006,09,05,09,56,19.70
2006,09,05,09,57,19.70
2006,09,05,09,58,19.70
2006,09,05,09,59,19.70
2006,09,05,10,00,19.70
2006,09,05,10,01,19.60
2006,09,05,10,02,19.60
2006,09,05,10,03,19.60
2006,09,05,10,04,19.60
2006,09,05,10,05,19.60
2006,09,05,10,06,19.60
2006,09,05,10,07,19.70
2006,09,05,10,08,19.70
2006,09,05,10,09,19.70
2006,09,05,10,10,19.80
2006,09,05,10,11,19.80
2006,09,05,10,12,19.80
2006,09,05,10,13,19.70
2006,09,05,10,14,19.70
2006,09,05,10,15,19.70
2006,09,05,10,16,19.70
2006,09,05,10,17,19.80
2006,09,05,10,18,19.80
2006,09,05,10,19,19.80
2006,09,05,10,20,19.80
2006,09,05,10,21,19.90
2006,09,05,10,22,19.90
2006,09,05,10,23,19.90
2006,09,05,10,24,19.90
2006,09,05,10,25,19.90
2006,09,05,10,26,19.90
2006,09,05,10,27,19.90
2006,09,05,10,28,19.90
2006,09,05,10,29,19.90
2006,09,05,10,30,19.90
2006,09,05,10,31,19.80
2006,09,05,10,32,19.80
2006,09,05,10,33,19.80
2006,09,05,10,34,19.80
2006,09,05,10,35,19.80
2006,09,05,10,36,19.80
2006,09,05,10,37,19.80
2006,09,05,10,38,19.80
2006,09,05,10,39,19.80
2006,09,05,10,40,19.80
2006,09,05,10,41,19.80
2006,09,05,10,42,19.80
2006,09,05,10,43,19.90
2006,09,05,10,44,19.90
2006,09,05,10,45,19.90
2006,09,05,10,46,19.90
2006,09,05,10,47,20.10
2006,09,05,10,48,20.10
2006,09,05,10,49,20.20
2006,09,05,10,50,20.20
2006,09,05,10,51,20.10
2006,09,05,10,52,20.00
2006,09,05,10,53,19.90
2006,09,05,10,54,19.90
2006,09,05,10,55,19.90
2006,09,05,10,56,19.90
2006,09,05,10,57,19.90
2006,09,05,10,58,19.90
2006,09,05,10,59,20.00
2006,09,05,11,00,20.10
2006,09,05,11,01,20.20
2006,09,05,11,02,20.20
2006,09,05,11,03,20.20
2006,09,05,11,04,20.20
2006,09,05,11,05,20.20
2006,09,05,11,06,20.10
2006,09,05,11,07,20.10
2006,09,05,11,08,20.10
2006,09,05,11,09,20.10
2006,09,05,11,10,20.10
2006,09,05,11,11,20.10
2006,09,05,11,12,20.20
2006,09,05,11,13,20.20
2006,09,05,11,14,20.20
2006,09,05,11,15,20.20
2006,09,05,11,16,20.20
2006,09,05,11,17,20.20
2006,09,05,11,18,20.20
2006,09,05,11,19,20.10
2006,09,05,11,20,20.00
2006,09,05,11,21,19.90
2006,09,05,11,22,19.90
2006,09,05,11,23,19.90
2006,09,05,11,24,19.90
2006,09,05,11,25,19.90
2006,09,05,11,26,19.90
2006,09,05,11,27,20.00
2006,09,05,11,28,20.10
2006,09,05,11,29,20.20
2006,09,05,11,30,20.20
2006,09,05,11,31,20.30
2006,09,05,11,32,20.30
2006,09,05,11,33,20.30
2006,09,05,11,34,20.20
2006,09,05,11,35,20.20
2006,09,05,11,36,20.20
2006,09,05,11,37,20.20
2006,09,05,11,38,20.20
2006,09,05,11,39,20.20
2006,09,05,11,40,20.10
2006,09,05,11,41,19.90
2006,09,05,11,42,19.90
2006,09,05,11,43,19.80
2006,09,05,11,44,19.70
2006,09,05,11,45,19.70
2006,09,05,11,46,19.70
2006,09,05,11,47,19.70
2006,09,05,11,48,19.80
2006,09,05,11,49,19.80
2006,09,05,11,50,19.80
2006,09,05,11,51,19.90
2006,09,05,11,52,19.90
2006,09,05,11,53,20.00
2006,09,05,11,54,19.90
2006,09,05,11,55,19.90
2006,09,05,11,56,19.90
2006,09,05,11,57,19.80
2006,09,05,11,58,19.80
2006,09,05,11,59,19.70
2006,09,05,12,00,19.70
2006,09,05,12,01,19.70
2006,09,05,12,02,19.70
2006,09,05,12,03,19.70
2006,09,05,12,04,19.70
2006,09,05,12,05,19.70
2006,09,05,12,06,19.80
2006,09,05,12,07,19.90
2006,09,05,12,08,19.90
2006,09,05,12,09,19.90
2006,09,05,12,10,19.90
2006,09,05,12,11,20.00
2006,09,05,12,12,20.10
2006,09,05,12,13,19.90
2006,09,05,12,14,19.90
2006,09,05,12,15,19.90
2006,09,05,12,16,19.90
2006,09,05,12,17,19.90
2006,09,05,12,18,19.90
2006,09,05,12,19,19.90
2006,09,05,12,20,20.00
2006,09,05,12,21,20.10
2006,09,05,12,22,20.10
2006,09,05,12,23,20.10
2006,09,05,12,24,20.00
2006,09,05,12,25,19.90
2006,09,05,12,26,19.90
2006,09,05,12,27,19.90
2006,09,05,12,28,19.90
2006,09,05,12,29,20.10
2006,09,05,12,30,20.20
2006,09,05,12,31,20.30
2006,09,05,12,32,20.40
2006,09,05,12,33,20.50
2006,09,05,12,34,20.60
2006,09,05,12,35,20.70
2006,09,05,12,36,20.80
2006,09,05,12,37,20.80
2006,09,05,12,38,20.90
2006,09,05,12,39,20.90
2006,09,05,12,40,20.80
2006,09,05,12,41,20.70
2006,09,05,12,42,20.60
2006,09,05,12,43,20.60
2006,09,05,12,44,20.50
2006,09,05,12,45,20.50
2006,09,05,12,46,20.50
2006,09,05,12,47,20.50
2006,09,05,12,48,20.50
2006,09,05,12,49,20.50
2006,09,05,12,50,20.50
2006,09,05,12,51,20.60
2006,09,05,12,52,20.60
2006,09,05,12,53,20.60
2006,09,05,12,54,20.60
2006,09,05,12,55,20.70
2006,09,05,12,56,20.70
2006,09,05,12,57,20.60
2006,09,05,12,58,20.60
2006,09,05,12,59,20.60
2006,09,05,13,00,20.70
2006,09,05,13,01,20.80
2006,09,05,13,02,20.90
2006,09,05,13,03,21.00
2006,09,05,13,04,21.10
2006,09,05,13,05,21.00
2006,09,05,13,06,21.00
2006,09,05,13,07,21.10
2006,09,05,13,08,21.10
2006,09,05,13,09,21.10
2006,09,05,13,10,21.20
2006,09,05,13,11,21.20
2006,09,05,13,12,21.30
2006,09,05,13,13,21.40
2006,09,05,13,14,21.40
2006,09,05,13,15,21.40
2006,09,05,13,16,21.40
2006,09,05,13,17,21.40
2006,09,05,13,18,21.40
2006,09,05,13,19,21.40
2006,09,05,13,20,21.40
2006,09,05,13,21,21.30
2006,09,05,13,22,21.40
2006,09,05,13,23,21.40
2006,09,05,13,24,21.40
2006,09,05,13,25,21.40
2006,09,05,13,26,21.40
2006,09,05,13,27,21.40
2006,09,05,13,28,21.40
2006,09,05,13,29,21.40
2006,09,05,13,30,21.40
2006,09,05,13,31,21.40
2006,09,05,13,32,21.50
2006,09,05,13,33,21.60
2006,09,05,13,34,21.60
2006,09,05,13,35,21.70
2006,09,05,13,36,21.80
2006,09,05,13,37,21.90
2006,09,05,13,38,21.90
2006,09,05,13,39,21.90
2006,09,05,13,40,21.90
2006,09,05,13,41,21.80
2006,09,05,13,42,21.70
2006,09,05,13,43,21.60
2006,09,05,13,44,21.60
2006,09,05,13,45,21.60
2006,09,05,13,46,21.60
2006,09,05,13,47,21.60
2006,09,05,13,48,21.70
2006,09,05,13,49,21.70
2006,09,05,13,50,21.70
2006,09,05,13,51,21.80
2006,09,05,13,52,21.80
2006,09,05,13,53,21.80
2006,09,05,13,54,21.70
2006,09,05,13,55,21.70
2006,09,05,13,56,21.70
2006,09,05,13,57,21.70
2006,09,05,13,58,21.80
2006,09,05,13,59,21.70
2006,09,05,14,00,21.60
2006,09,05,14,01,21.40
2006,09,05,14,02,21.40
2006,09,05,14,03,21.30
2006,09,05,14,04,21.30
2006,09,05,14,05,21.40
2006,09,05,14,06,21.30
2006,09,05,14,07,21.30
2006,09,05,14,08,21.40
2006,09,05,14,09,21.50
2006,09,05,14,10,21.60
2006,09,05,14,11,21.60
2006,09,05,14,12,21.60
2006,09,05,14,13,21.70
2006,09,05,14,14,21.80
2006,09,05,14,15,21.90
2006,09,05,14,16,22.00
2006,09,05,14,17,22.10
2006,09,05,14,18,22.30
2006,09,05,14,19,22.50
2006,09,05,14,20,22.70
2006,09,05,14,21,22.80
2006,09,05,14,22,22.90
2006,09,05,14,23,22.90
2006,09,05,14,24,23.00
2006,09,05,14,25,23.10
2006,09,05,14,26,23.10
2006,09,05,14,27,23.10
2006,09,05,14,28,23.20
2006,09,05,14,29,23.30
2006,09,05,14,30,23.30
2006,09,05,14,31,23.30
2006,09,05,14,32,23.30
2006,09,05,14,33,23.30
2006,09,05,14,34,23.40
2006,09,05,14,35,23.50
2006,09,05,14,36,23.60
2006,09,05,14,37,23.70
2006,09,05,14,38,23.70
2006,09,05,14,39,23.70
2006,09,05,14,40,23.70
2006,09,05,14,41,23.70
2006,09,05,14,42,23.70
2006,09,05,14,43,23.80
2006,09,05,14,44,23.90
2006,09,05,14,45,24.00
2006,09,05,14,46,24.10
2006,09,05,14,47,24.10
2006,09,05,14,48,24.10
2006,09,05,14,49,24.10
2006,09,05,14,50,24.00
2006,09,05,14,51,23.90
2006,09,05,14,52,23.80
2006,09,05,14,53,23.80
2006,09,05,14,54,23.80
2006,09,05,14,55,23.80
2006,09,05,14,56,23.70
2006,09,05,14,57,23.70
2006,09,05,14,58,23.70
2006,09,05,14,59,23.70
2006,09,05,15,00,23.70
2006,09,05,15,01,23.70
2006,09,05,15,02,23.70
2006,09,05,15,03,23.70
2006,09,05,15,04,23.70
2006,09,05,15,05,23.70
2006,09,05,15,06,23.80
2006,09,05,15,07,23.80
2006,09,05,15,08,23.90
2006,09,05,15,09,24.10
2006,09,05,15,10,24.20
2006,09,05,15,11,24.20
2006,09,05,15,12,24.20
2006,09,05,15,13,24.20
2006,09,05,15,14,24.20
2006,09,05,15,15,24.20
2006,09,05,15,16,24.20
2006,09,05,15,17,24.30
2006,09,05,15,18,24.20
2006,09,05,15,19,24.20
2006,09,05,15,20,24.30
2006,09,05,15,21,24.40
2006,09,05,15,22,24.50
2006,09,05,15,23,24.50
2006,09,05,15,24,24.60
2006,09,05,15,25,24.70
2006,09,05,15,26,24.70
2006,09,05,15,27,24.70
2006,09,05,15,28,24.90
2006,09,05,15,29,24.90
2006,09,05,15,30,25.00
2006,09,05,15,31,25.00
2006,09,05,15,32,25.10
2006,09,05,15,33,25.10
2006,09,05,15,34,25.10
2006,09,05,15,35,25.10
2006,09,05,15,36,25.10
2006,09,05,15,37,25.00
2006,09,05,15,38,25.10
2006,09,05,15,39,25.10
2006,09,05,15,40,25.10
2006,09,05,15,41,25.10
2006,09,05,15,42,25.10
2006,09,05,15,43,25.20
2006,09,05,15,44,25.20
2006,09,05,15,45,25.30
2006,09,05,15,46,25.30
2006,09,05,15,47,25.40
2006,09,05,15,48,25.40
2006,09,05,15,49,25.40
2006,09,05,15,50,25.50
2006,09,05,15,51,25.40
2006,09,05,15,52,25.50
2006,09,05,15,53,25.50
2006,09,05,15,54,25.50
2006,09,05,15,55,25.40
2006,09,05,15,56,25.40
2006,09,05,15,57,25.40
2006,09,05,15,58,25.40
2006,09,05,15,59,25.40
2006,09,05,16,00,25.40
2006,09,05,16,01,25.50
2006,09,05,16,02,25.50
2006,09,05,16,03,25.60
2006,09,05,16,04,25.60
2006,09,05,16,05,25.60
2006,09,05,16,06,25.60
2006,09,05,16,07,25.60
2006,09,05,16,08,25.60
2006,09,05,16,09,25.60
2006,09,05,16,10,25.50
2006,09,05,16,11,25.50
2006,09,05,16,12,25.40
2006,09,05,16,13,25.40
2006,09,05,16,14,25.40
2006,09,05,16,15,25.50
2006,09,05,16,16,25.50
2006,09,05,16,17,25.50
2006,09,05,16,18,25.50
2006,09,05,16,19,25.50
2006,09,05,16,20,25.40
2006,09,05,16,21,25.40
2006,09,05,16,22,25.50
2006,09,05,16,23,25.50
2006,09,05,16,24,25.50
2006,09,05,16,25,25.50
2006,09,05,16,26,25.50
2006,09,05,16,27,25.50
2006,09,05,16,28,25.60
2006,09,05,16,29,25.60
2006,09,05,16,30,25.60
2006,09,05,16,31,25.60
2006,09,05,16,32,25.50
2006,09,05,16,33,25.50
2006,09,05,16,34,25.40
2006,09,05,16,35,25.30
2006,09,05,16,36,25.30
2006,09,05,16,37,25.30
2006,09,05,16,38,25.30
2006,09,05,16,39,25.40
2006,09,05,16,40,25.40
2006,09,05,16,41,25.40
2006,09,05,16,42,25.40
2006,09,05,16,43,25.40
2006,09,05,16,44,25.30
2006,09,05,16,45,25.30
2006,09,05,16,46,25.30
2006,09,05,16,47,25.20
2006,09,05,16,48,25.20
2006,09,05,16,49,25.30
2006,09,05,16,50,25.40
2006,09,05,16,51,25.50
2006,09,05,16,52,25.60
2006,09,05,16,53,25.70
2006,09,05,16,54,25.70
2006,09,05,16,55,25.70
2006,09,05,16,56,25.70
2006,09,05,16,57,25.80
2006,09,05,16,58,25.70
2006,09,05,16,59,25.80
2006,09,05,17,00,25.80
2006,09,05,17,01,25.80
2006,09,05,17,02,25.80
2006,09,05,17,03,25.80
2006,09,05,17,04,25.80
2006,09,05,17,05,25.80
2006,09,05,17,06,25.80
2006,09,05,17,07,25.80
2006,09,05,17,08,25.80
2006,09,05,17,09,25.90
2006,09,05,17,10,26.00
2006,09,05,17,11,26.00
2006,09,05,17,12,26.10
2006,09,05,17,13,26.20
2006,09,05,17,14,26.30
2006,09,05,17,15,26.30
2006,09,05,17,16,26.30
2006,09,05,17,17,26.40
2006,09,05,17,18,26.40
2006,09,05,17,19,26.40